小惑星2009 YS6

2009 YS6

English version
Home page
Updated on September 2, 2011

---------------------------------------------------------------------

・ プロフィール

発見日 2009年12月17日
発見光度 21.5等
発見者 Mt. Lemmon Survey

・ 写真集

・ 軌道要素

The following orbital elements are taken from MPO201132

Epoch 2011 Aug. 27.0 TT = JDT 2455800.5                 MPC
M   2.46620              (2000.0)            P               Q
n   0.01079818     Peri.  288.82477     +0.86115729     +0.16728416
a  20.2722633      Node   295.86231     +0.25485382     -0.95913055
e   0.9202298      Incl.  147.76093     -0.43983821     -0.22822052
P  91.3            H   14.3           G   0.15           U   0
From 138 observations at 3 oppositions, 2009-2011, mean residual 0".41.

・ 星図

・ 光度変化

        H = 14.0  G = 0.15

---------------------------------------------------------------------

軌道要素はMPCのEphemerides and Orbital Elementsに掲載されたものです。
星図はステラナビゲータ Ver.8 (アストロアーツ) で作成したものです。
光度グラフはComet for Windowsで作成したものです。

---------------------------------------------------------------------

Copyright(C) Seiichi Yoshida (comet@aerith.net). All rights reserved.